Location: Godiavel Galaoual
(15.2485°N, 12.6604°W)
Time: 09:27:32
(UTC+00:00)

Cosmos 1500 - Pass Details

Date: 27 February 2020
Orbit: 499 x 521 km, 82.5° (Epoch: 28 March)

Event Time Altitude Azimuth Distance (km) Brightness Sun altitude
Rises 20:31:36 0° 192° (SSW) 2,610 7.0 -23.4°
Reaches altitude 10° 20:33:45 10° 197° (SSW) 1,730 6.1 -23.9°
Maximum altitude 20:37:27 54° 275° (W) 631 3.8 -24.8°
Enters shadow 20:38:26 41° 325° (NW) 762 4.2 -25.0°
